Weather History for Meeker, CO

Change the Weather History Date:

Friday, December 20, 2013

  Actual Average Record
Temperature  
Mean Temperature 18 °F 20 °F  
Max Temperature 35 °F 33 °F 45 °F (2004)
Min Temperature 1 °F 7 °F -21 °F (2012)
Degree Days  
Heating Degree Days 47 45  
Month to date heating degree days 1023 856  
Since 1 July heating degree days 2921 2792  
Cooling Degree Days 0 0  
Month to date cooling degree days 0 0  
Year to date cooling degree days 324 172  
Moisture  
Dew Point 20 °F    
Average Humidity 86    
Maximum Humidity 96    
Minimum Humidity 75    
Precipitation  
Precipitation 0.03 in 0.03 in 0.61 in (2010)
Month to date precipitation 0.79 0.71  
Year to date precipitation 17.79 15.66  
Sea Level Pressure  
Sea Level Pressure 29.76 in    
Wind  
Wind Speed 4 mph (WSW)    
Max Wind Speed 15 mph    
Max Gust Speed 19 mph    
Visibility 5 miles    
Events Snow    
T = Trace of Precipitation, MM = Missing Value Source: NWS Daily Summary

Daily Weather History Graph

Daily Weather History Graph

Search for Another Location

Airport:

Trip Planner

Search our weather history database for the weather conditions in past years. The results will help you decide how hot, cold, wet, or windy it might be!

Date:

Astronomy

Dec. 20, 2013 Rise Set
Actual Time 7:29 AM MST 4:49 PM MST
Civil Twilight 6:59 AM MST 5:19 PM MST
Nautical Twilight 6:24 AM MST 5:53 PM MST
Astronomical Twilight 5:51 AM MST 6:26 PM MST
Moon 8:12 PM MST (12/20) 9:25 AM MST (12/20)
Length of Visible Light 10h 20m
Length of Day
9h 19m
Waning Gibbous, 90% of the Moon is Illuminated
Dec 20
Waning Gibbous
Dec 25
Last Quarter
Jan 1
New
Jan 7
First Quarter
Jan 15
Full

Hourly Weather History & Observations

Time (MST) Temp. Windchill Dew Point Humidity Pressure Visibility Wind Dir Wind Speed Gust Speed Precip Events Conditions
12:53 AM 34.0 °F 26.6 °F 26.1 °F 73% 29.65 in 9.0 mi South 9.2 mph - 0.00 in   Overcast
1:53 AM 30.9 °F 22.2 °F 24.1 °F 76% 29.67 in 10.0 mi WSW 10.4 mph - N/A   Overcast
2:53 AM 28.9 °F 21.1 °F 25.0 °F 85% 29.71 in 3.0 mi SW 8.1 mph - 0.00 in Snow Light Snow
3:07 AM 28.9 °F 21.9 °F 26.1 °F 89% 29.74 in 1.8 mi WSW 6.9 mph - 0.00 in Snow Light Snow
3:18 AM 28.0 °F 21.7 °F 26.1 °F 92% 29.74 in 2.0 mi WSW 5.8 mph - 0.00 in Snow Light Snow
3:24 AM 28.9 °F 23.9 °F 27.0 °F 92% 29.74 in 1.8 mi WSW 4.6 mph - 0.00 in Snow Light Snow
3:53 AM 28.0 °F - 27.0 °F 96% 29.72 in 1.8 mi Calm Calm - 0.01 in Snow Light Snow
3:57 AM 28.0 °F - 27.0 °F 96% 29.74 in 3.0 mi Calm Calm - 0.00 in Snow Light Snow
4:12 AM 28.0 °F - 27.0 °F 96% 29.74 in 2.5 mi Calm Calm - 0.00 in Snow Light Snow
4:20 AM 28.0 °F - 27.0 °F 96% 29.74 in 4.0 mi Calm Calm - 0.00 in Snow Light Snow
4:53 AM 28.0 °F - 27.0 °F 96% 29.72 in 3.0 mi Calm Calm - 0.00 in Snow Light Snow
5:04 AM 28.0 °F - 27.0 °F 96% 29.73 in 1.8 mi Calm Calm - 0.00 in Snow Light Snow
5:31 AM 28.0 °F - 27.0 °F 96% 29.73 in 2.0 mi Calm Calm - 0.01 in Snow Light Snow
5:37 AM 28.0 °F - 26.1 °F 92% 29.73 in 3.0 mi Calm Calm - 0.01 in Snow Light Snow
5:53 AM 28.0 °F 22.8 °F 26.1 °F 92% 29.73 in 4.0 mi NNE 4.6 mph - 0.01 in Snow Light Snow
6:03 AM 28.0 °F 24.2 °F 26.1 °F 92% 29.73 in 4.0 mi NNE 3.5 mph - 0.00 in Snow Light Snow
6:15 AM 28.0 °F - 27.0 °F 96% 29.73 in 3.0 mi Calm Calm - 0.00 in Snow Light Snow
6:53 AM 27.0 °F 21.6 °F 25.0 °F 92% 29.74 in 4.0 mi West 4.6 mph - 0.00 in Snow Light Snow
7:03 AM 27.0 °F 23.0 °F 26.1 °F 96% 29.73 in 3.0 mi West 3.5 mph - 0.00 in Snow Light Snow
7:34 AM 26.1 °F 19.4 °F 25.0 °F 96% 29.73 in 2.5 mi WSW 5.8 mph - 0.00 in Snow Light Snow
7:53 AM 26.1 °F 21.9 °F 25.0 °F 96% 29.76 in 2.0 mi SSW 3.5 mph - 0.00 in Snow Light Snow
8:04 AM 26.1 °F 21.9 °F 24.1 °F 92% 29.73 in 4.0 mi South 3.5 mph - 0.00 in Snow Light Snow
8:53 AM 28.0 °F - 24.1 °F 85% 29.78 in 9.0 mi Calm Calm - 0.00 in   Overcast
9:53 AM 27.0 °F 20.5 °F 23.0 °F 85% 29.80 in 3.0 mi SW 5.8 mph - 0.00 in Snow Light Snow
10:36 AM 26.1 °F 19.4 °F 23.0 °F 88% 29.77 in 1.8 mi SW 5.8 mph - 0.00 in Snow Light Snow
10:53 AM 26.1 °F 20.5 °F 23.0 °F 88% 29.80 in 1.5 mi SW 4.6 mph - 0.01 in Snow Light Snow
11:13 AM 26.1 °F - 24.1 °F 92% 29.77 in 1.0 mi Calm Calm - 0.00 in Snow Light Snow
11:22 AM 26.1 °F - 23.0 °F 88% 29.77 in 1.5 mi Calm Calm - 0.00 in Snow Light Snow
11:36 AM 27.0 °F - 23.0 °F 85% 29.77 in 2.5 mi Calm Calm - 0.00 in Snow Light Snow
11:44 AM 27.0 °F - 23.0 °F 85% 29.76 in 3.0 mi Calm Calm - 0.00 in Snow Light Snow
11:53 AM 27.0 °F - 23.0 °F 85% 29.79 in 3.0 mi Calm Calm - 0.00 in Snow Light Snow
11:58 AM 26.1 °F 18.4 °F 21.9 °F 84% 29.76 in 2.5 mi West 6.9 mph - 0.00 in Snow Light Snow
12:35 PM 26.1 °F 20.5 °F 21.0 °F 81% 29.76 in 4.0 mi WNW 4.6 mph - 0.00 in Snow Light Snow
12:49 PM 26.6 °F 17.5 °F 19.4 °F 74% 29.75 in 2.5 mi West 9.2 mph - 0.00 in Snow Light Snow
12:53 PM 26.1 °F 18.4 °F 19.9 °F 78% 29.78 in 2.0 mi West 6.9 mph - 0.00 in Snow Light Snow
1:00 PM 26.1 °F 19.4 °F 21.0 °F 81% 29.75 in 1.5 mi West 5.8 mph - 0.00 in Snow Light Snow
1:18 PM 27.0 °F - 21.9 °F 81% 29.75 in 2.0 mi Calm Calm - 0.00 in Snow Light Snow
1:33 PM 26.1 °F 19.4 °F 23.0 °F 88% 29.75 in 2.0 mi SW 5.8 mph - 0.00 in Snow Light Snow
1:50 PM 26.6 °F 21.2 °F 23.0 °F 86% 29.75 in 3.0 mi SW 4.6 mph - 0.00 in Snow Light Snow
1:53 PM 25.0 °F 19.3 °F 23.0 °F 92% 29.79 in 3.0 mi SW 4.6 mph - 0.00 in Snow Light Snow
2:27 PM 25.0 °F 18.1 °F 21.9 °F 88% 29.75 in 2.5 mi WSW 5.8 mph - 0.00 in Snow Light Snow
2:53 PM 25.0 °F 19.3 °F 21.9 °F 88% 29.81 in 2.5 mi WSW 4.6 mph - 0.00 in Snow Light Snow
3:00 PM 25.0 °F 20.7 °F 21.9 °F 88% 29.75 in 3.0 mi WSW 3.5 mph - 0.00 in Snow Light Snow
3:19 PM 26.1 °F - 21.0 °F 81% 29.75 in 4.0 mi Calm Calm - 0.00 in Snow Light Snow
3:53 PM 25.0 °F - 21.0 °F 85% 29.80 in 10.0 mi Calm Calm - 0.00 in   Mostly Cloudy
4:53 PM 21.9 °F - 19.0 °F 89% 29.82 in 10.0 mi Calm Calm - N/A   Overcast
5:53 PM 12.0 °F 5.9 °F 9.0 °F 88% 29.88 in 10.0 mi ENE 3.5 mph - N/A   Mostly Cloudy
6:26 PM 16.0 °F 10.4 °F 14.0 °F 92% 29.76 in 10.0 mi South 3.5 mph - N/A   Overcast
6:53 PM 17.1 °F 11.7 °F 15.1 °F 92% 29.86 in 10.0 mi SE 3.5 mph - N/A   Overcast
7:01 PM 18.0 °F - 16.0 °F 92% 29.75 in 10.0 mi Calm Calm - N/A   Overcast
7:53 PM 14.0 °F 6.5 °F 12.0 °F 92% 29.88 in 10.0 mi NE 4.6 mph - N/A   Mostly Cloudy
8:53 PM 5.0 °F - 3.0 °F 92% 29.90 in 10.0 mi Calm Calm - N/A   Clear
9:12 PM 3.0 °F - -0.0 °F 87% 29.75 in 8.0 mi Calm Calm - N/A   Scattered Clouds
9:20 PM 1.9 °F - -0.0 °F 91% 29.75 in 7.0 mi Calm Calm - N/A   Mostly Cloudy
9:34 PM 6.1 °F - 3.9 °F 91% 29.75 in 10.0 mi Calm Calm - N/A   Scattered Clouds
9:53 PM 6.1 °F -2.8 °F 3.0 °F 87% 29.89 in 10.0 mi ESE 4.6 mph - N/A   Clear
10:34 PM 6.1 °F - 3.9 °F 91% 29.74 in 10.0 mi Calm Calm - N/A   Mostly Cloudy
10:42 PM 6.1 °F - 1.9 °F 83% 29.74 in 10.0 mi Calm Calm - N/A   Mostly Cloudy
10:53 PM 8.1 °F - 5.0 °F 87% 29.88 in 10.0 mi Calm Calm - N/A   Overcast
11:29 PM 7.0 °F - 5.0 °F 92% 29.72 in 10.0 mi Calm Calm - N/A   Scattered Clouds
11:53 PM 5.0 °F - 1.9 °F 87% 29.88 in 10.0 mi Calm Calm - N/A   Clear